Stations météo

Publicité
Cap-de-la Heve, France (7028): Température de l'air & dewpoint: 06.12.2018 19:00:00 - 12.12.2018 19:00:00 (CET)Cap-de-la Heve, France (7028): Température de l'air 5cm: 06.12.2018 19:00:00 - 12.12.2018 19:00:00 (CET)Cap-de-la Heve, France (7028): Vitesse du vent & gusts: 06.12.2018 19:00:00 - 12.12.2018 19:00:00 (CET)Cap-de-la Heve, France (7028): Direction du vent: 06.12.2018 19:00:00 - 12.12.2018 19:00:00 (CET)Cap-de-la Heve, France (7028): reduced air pressure: 06.12.2018 19:00:00 - 12.12.2018 19:00:00 (CET)Cap-de-la Heve, France (7028): visibility: 06.12.2018 19:00:00 - 12.12.2018 19:00:00 (CET)Cap-de-la Heve, France (7028): Quantités de précipitations: 06.12.2018 19:00:00 - 12.12.2018 19:00:00 (CET)
Date & Time tt [°C] td [°C] tt 5cm [°C] ff [km/h] ff [knt] fx [km/h] fx [knt] dd ppp [hPa] vv [km] rr [mm]
12.12.2018 19:00:00 2,9 -2,6 2,1 16 9 35 19 ESE 1019,9 - 0,0
12.12.2018 18:00:00 3,5 -3,1 2,9 21 12 42 23 ESE 1019,9 - 0,0
12.12.2018 17:00:00 3,8 -2,6 3,1 21 12 41 22 ESE 1020,0 - 0,0
12.12.2018 16:00:00 4,7 -2,9 5,5 24 13 48 26 ESE 1020,2 15 0,0
12.12.2018 15:00:00 5,0 -2,4 6,6 22 12 40 22 ESE 1020,6 - 0,0
12.12.2018 14:00:00 5,2 -1,9 7,2 19 10 39 21 SE 1021,4 - 0,0
12.12.2018 13:00:00 4,9 -0,3 4,7 17 9 34 18 SE 1021,8 8 0,0
12.12.2018 12:00:00 4,0 0,7 3,0 20 11 41 22 ESE 1022,0 - 0,0
12.12.2018 11:00:00 2,6 0,7 3,0 27 14 46 25 ESE 1022,5 - 0,0
12.12.2018 10:00:00 2,8 1,3 2,5 23 12 39 21 ESE 1022,7 8 0,0
12.12.2018 09:00:00 2,7 1,4 2,6 24 13 40 22 ESE 1022,7 - 0,0
12.12.2018 08:00:00 3,1 1,6 2,9 22 12 40 22 ESE 1022,3 - 0,0
12.12.2018 07:00:00 3,4 1,8 3,3 23 12 42 23 ESE 1022,1 16 0,0
12.12.2018 06:00:00 3,4 2,1 3,2 19 11 35 19 ESE 1022,4 - 0,0
12.12.2018 05:00:00 3,4 2,1 3,2 20 11 34 18 E 1022,5 - 0,0
12.12.2018 04:00:00 3,3 2,0 3,2 23 12 34 18 E 1022,7 20 0,0
12.12.2018 03:00:00 4,2 2,1 4,1 20 11 29 16 ESE 1022,8 - 0,0
12.12.2018 02:00:00 5,1 2,3 4,8 16 9 27 15 ESE 1022,7 - 0,0
12.12.2018 01:00:00 5,7 2,7 5,0 17 9 28 15 SE 1022,9 20 0,0
12.12.2018 00:00:00 5,4 3,4 5,0 17 9 35 19 ESE 1022,4 - 0,0
11.12.2018 23:00:00 6,2 3,4 5,5 22 12 39 21 SE 1022,6 - 0,0
11.12.2018 22:00:00 5,9 3,7 5,6 16 9 31 17 SE 1023,0 20 0,0
11.12.2018 21:00:00 6,4 3,7 5,7 19 10 28 15 SE 1023,4 - 0,0
11.12.2018 20:00:00 6,7 4,0 6,1 16 9 27 15 SE 1023,5 - 0,0
11.12.2018 19:00:00 6,9 3,9 6,4 13 7 22 12 ESE 1023,8 - 0,0
11.12.2018 18:00:00 7,4 3,6 6,5 13 7 21 11 ESE 1023,6 - 0,0
11.12.2018 17:00:00 7,8 3,5 6,9 9 5 16 9 ESE 1023,7 - 0,0
11.12.2018 16:00:00 9,0 3,4 10,1 8 4 14 8 SE 1024,0 10 0,0
11.12.2018 15:00:00 9,7 4,3 12,8 8 4 15 8 S 1024,0 - 0,0
11.12.2018 14:00:00 9,7 4,1 12,9 10 6 17 9 SSE 1024,5 - 0,0
11.12.2018 13:00:00 9,2 4,0 12,3 10 5 16 8 SSE 1025,3 7 0,0
11.12.2018 12:00:00 8,9 4,1 11,3 8 4 12 7 SSE 1026,0 - 0,0
11.12.2018 11:00:00 8,2 4,0 9,1 8 4 9 5 SSE 1026,2 - 0,0
11.12.2018 10:00:00 7,2 4,2 5,1 5 3 9 5 SSE 1026,2 7 0,0
11.12.2018 09:00:00 5,9 4,5 4,0 5 3 9 5 SE 1026,3 - 0,0
11.12.2018 08:00:00 5,8 4,4 4,2 5 3 11 6 SSE 1026,6 - 0,0
11.12.2018 07:00:00 6,1 4,6 4,1 6 3 10 5 S 1026,3 20 0,0
11.12.2018 06:00:00 6,0 4,6 4,5 5 3 11 6 SE 1026,6 - 0,0
11.12.2018 05:00:00 6,5 5,1 5,0 7 4 10 6 S 1026,9 - 0,0
11.12.2018 04:00:00 7,0 4,3 5,3 5 3 10 6 SE 1027,5 20 0,0
11.12.2018 03:00:00 8,2 3,4 6,0 6 3 11 6 N 1027,4 - 0,0
11.12.2018 02:00:00 8,5 3,3 6,4 8 4 13 7 N 1027,7 - 0,0
11.12.2018 01:00:00 8,6 3,4 6,4 7 4 16 9 N 1028,1 - 0,0
11.12.2018 00:00:00 8,9 3,5 6,8 8 5 17 9 NNW 1028,3 - 0,0
10.12.2018 23:00:00 9,1 3,9 7,5 8 4 16 9 N 1028,5 - 0,0
10.12.2018 22:00:00 9,2 4,0 7,1 11 6 25 13 NNW 1028,6 20 0,0
10.12.2018 21:00:00 9,2 3,4 7,5 13 7 24 13 NNW 1028,4 - 0,0
10.12.2018 20:00:00 9,5 3,9 8,1 15 8 28 15 NNW 1028,9 - 0,0
10.12.2018 19:00:00 9,5 3,5 8,2 14 8 30 16 NNW 1028,8 - 0,0
10.12.2018 18:00:00 9,5 3,5 7,8 14 8 26 14 NW 1028,9 - 0,0
10.12.2018 17:00:00 9,6 3,1 8,8 13 7 27 15 NNW 1028,8 - 0,0
10.12.2018 16:00:00 9,7 3,6 9,4 14 7 31 17 NNW 1028,9 20 0,0
10.12.2018 15:00:00 9,8 3,5 10,1 18 10 33 18 NNW 1029,0 - 0,0
10.12.2018 14:00:00 10,3 4,2 13,0 13 7 30 16 NW 1028,9 - 0,0
10.12.2018 13:00:00 10,2 3,9 12,2 16 9 32 18 NNW 1029,2 20 0,0
10.12.2018 12:00:00 10,0 4,1 9,6 16 9 38 20 NNW 1029,5 - 0,0
10.12.2018 11:00:00 9,8 3,5 9,3 17 9 36 20 NNW 1029,0 - 0,0
10.12.2018 10:00:00 9,4 3,8 8,4 19 11 43 23 NNW 1028,6 12 0,0
10.12.2018 09:00:00 9,4 3,1 8,1 23 12 41 22 NNW 1028,0 - 0,0
10.12.2018 08:00:00 9,4 3,6 8,1 24 13 48 26 NNW 1028,0 - 0,0
10.12.2018 07:00:00 9,5 4,1 8,1 26 14 49 27 NNW 1027,5 - 0,0
10.12.2018 06:00:00 9,7 4,1 8,4 22 12 45 24 NNW 1027,0 - 0,0
10.12.2018 05:00:00 9,8 4,6 8,6 23 12 42 23 NNW 1026,4 - 0,0
10.12.2018 04:00:00 10,1 5,3 8,7 21 11 49 27 NNW 1026,0 20 0,0
10.12.2018 03:00:00 10,0 5,6 8,8 23 13 53 29 NNW 1025,8 - 0,0
10.12.2018 02:00:00 9,6 5,8 8,7 31 17 55 30 NW 1025,3 - 0,0
10.12.2018 01:00:00 10,3 6,1 9,0 18 10 45 24 NNW 1025,2 20 0,0
10.12.2018 00:00:00 10,2 5,4 9,0 22 12 42 23 NW 1024,8 - 0,0
09.12.2018 23:00:00 10,3 5,7 9,2 23 13 44 24 NW 1024,3 - 0,0
09.12.2018 22:00:00 10,4 5,6 9,3 25 14 49 26 NW 1023,5 20 0,0
09.12.2018 21:00:00 10,5 5,0 9,2 26 14 48 26 NNW 1023,0 - 0,0
09.12.2018 20:00:00 10,5 5,7 9,4 24 13 47 25 NNW 1021,9 - 0,0
09.12.2018 19:00:00 10,7 5,0 8,9 23 12 52 28 NNW 1020,7 - 0,0
09.12.2018 18:00:00 10,7 6,3 8,3 26 14 53 29 NNW 1019,2 - 1,6
09.12.2018 17:00:00 10,9 7,4 10,1 31 17 59 32 NW 1017,9 - 0,0
09.12.2018 16:00:00 11,1 7,8 10,7 38 20 62 34 NW 1016,0 12 0,0
09.12.2018 15:00:00 11,4 7,7 10,8 33 18 66 36 NW 1014,6 - 0,0
09.12.2018 14:00:00 11,1 6,2 9,8 41 22 73 39 NW 1013,2 - 0,0
09.12.2018 13:00:00 10,1 8,4 9,4 40 22 83 45 WNW 1012,1 4,0 0,2
09.12.2018 12:00:00 11,0 8,2 9,3 35 19 92 50 WNW 1010,7 - 1,4
09.12.2018 11:00:00 11,1 7,8 9,6 35 19 91 49 WNW 1010,1 - 0,0
09.12.2018 10:00:00 10,6 8,0 9,1 39 21 99 54 WNW 1009,0 2,0 0,2
09.12.2018 09:00:00 10,8 7,1 9,8 40 22 103 55 WNW 1008,2 - 0,0
09.12.2018 08:00:00 10,4 7,3 9,5 54 29 105 57 W 1007,8 - 0,0
09.12.2018 07:00:00 10,5 7,0 9,5 54 29 105 57 W 1007,3 - 0,0
09.12.2018 06:00:00 10,4 6,3 9,3 73 40 113 61 W 1006,5 - 0,0
09.12.2018 05:00:00 9,9 6,4 8,4 59 32 96 52 W 1006,9 - 0,0
09.12.2018 04:00:00 10,3 6,4 9,5 61 33 94 51 W 1007,0 10 0,0
09.12.2018 03:00:00 9,9 6,6 8,5 62 33 101 55 W 1006,6 - 0,0
09.12.2018 02:00:00 9,7 6,6 7,4 32 18 105 57 WNW 1006,5 - 0,6
09.12.2018 01:00:00 10,8 6,0 10,1 59 32 95 51 W 1005,7 10 0,0
09.12.2018 00:00:00 10,6 6,5 9,0 36 20 90 49 WNW 1006,2 - 0,0
08.12.2018 23:00:00 10,9 6,6 9,4 40 22 98 53 WNW 1005,4 - 0,0
08.12.2018 22:00:00 9,7 8,6 7,7 46 25 96 52 W 1005,4 3,0 3,9
08.12.2018 21:00:00 11,4 7,9 11,0 53 29 93 50 W 1005,3 - 0,0
08.12.2018 20:00:00 11,6 7,7 10,6 65 35 100 54 W 1005,7 - 0,0
08.12.2018 19:00:00 11,5 10,1 10,8 47 25 93 50 WSW 1005,6 - 0,0
08.12.2018 18:00:00 11,2 10,6 10,7 39 21 80 43 WSW 1006,0 - 0,4
08.12.2018 17:00:00 11,2 10,1 10,5 29 16 80 43 SW 1006,5 - 0,0
08.12.2018 16:00:00 11,1 9,5 10,8 33 18 77 41 SW 1007,2 12 0,0
08.12.2018 15:00:00 10,7 9,1 9,9 24 13 74 40 SSW 1008,9 - 0,0
08.12.2018 14:00:00 9,9 8,5 9,7 26 14 77 42 SSW 1010,0 - 0,0
08.12.2018 13:00:00 10,0 8,6 10,0 26 14 80 43 SW 1011,6 6 0,0
08.12.2018 12:00:00 10,3 8,1 10,1 29 16 94 51 WSW 1012,6 - 0,0
08.12.2018 11:00:00 10,7 7,2 10,5 35 19 81 44 WSW 1012,7 - 0,0
08.12.2018 10:00:00 10,7 6,6 9,4 55 30 81 44 W 1012,6 8 0,0
08.12.2018 09:00:00 10,8 6,5 8,9 51 28 90 49 W 1012,4 - 0,0
08.12.2018 08:00:00 10,6 5,8 8,6 47 26 83 45 W 1012,3 - 0,0
08.12.2018 07:00:00 9,6 7,5 8,7 41 22 73 40 W 1012,1 5 0,6
08.12.2018 06:00:00 10,0 6,9 9,4 40 22 78 42 WSW 1011,9 - 0,0
08.12.2018 05:00:00 10,0 6,2 9,1 38 20 95 52 WSW 1011,2 - 0,0
08.12.2018 04:00:00 9,3 6,7 7,7 34 19 79 43 WSW 1011,5 12 0,0
08.12.2018 03:00:00 8,1 7,2 7,8 22 12 74 40 SSW 1012,2 - 1,0
08.12.2018 02:00:00 9,0 6,6 8,0 29 16 93 50 SW 1012,0 - 0,0
08.12.2018 01:00:00 9,1 5,6 8,6 32 18 75 41 SW 1012,1 15 0,0
08.12.2018 00:00:00 8,9 5,3 8,6 25 14 72 39 SW 1012,5 - 0,0
07.12.2018 23:00:00 9,0 5,9 8,2 31 17 74 40 WSW 1012,3 - 0,0
07.12.2018 22:00:00 8,7 5,4 7,4 36 19 79 43 WSW 1012,1 15 0,0
07.12.2018 21:00:00 8,2 5,0 6,8 60 32 99 54 W 1011,6 - 0,2
07.12.2018 20:00:00 9,4 4,0 8,4 54 29 82 44 W 1010,8 - 0,0
07.12.2018 19:00:00 9,1 5,1 8,2 43 23 90 49 WSW 1010,2 - 0,0
07.12.2018 18:00:00 9,3 3,9 7,1 27 14 69 37 WNW 1009,1 - 0,0
07.12.2018 17:00:00 9,2 4,8 5,6 34 18 78 42 WNW 1007,9 - 1,0
07.12.2018 16:00:00 9,2 5,0 6,1 25 13 81 44 WNW 1007,0 10 1,2
07.12.2018 15:00:00 10,3 5,1 8,7 24 13 81 44 WNW 1005,8 - 0,0
07.12.2018 14:00:00 10,0 8,1 8,5 44 24 69 37 W 1005,3 - 0,4
07.12.2018 13:00:00 8,9 7,7 8,4 22 12 91 49 WNW 1005,2 0,5 4,9
07.12.2018 12:00:00 11,3 10,5 10,7 24 13 70 38 SW 1003,7 - 0,8
07.12.2018 11:00:00 11,1 10,0 10,4 39 21 67 36 SSW 1005,0 - 1,2
07.12.2018 10:00:00 11,8 9,0 10,7 25 14 69 37 SW 1006,5 20 0,0
07.12.2018 09:00:00 11,5 9,9 11,1 19 10 59 32 SW 1008,8 - 0,0
07.12.2018 08:00:00 11,8 9,7 11,3 20 11 60 33 SSW 1009,8 - 0,0
07.12.2018 07:00:00 11,5 10,4 11,0 16 9 49 26 SW 1011,2 20 0,0
07.12.2018 06:00:00 11,5 10,4 11,0 17 9 53 29 SSW 1012,5 - 0,0
07.12.2018 05:00:00 11,8 10,4 11,6 16 9 47 26 SE 1013,7 - 0,0
07.12.2018 04:00:00 11,7 10,4 11,6 16 9 51 27 SSE 1014,6 20 0,0
07.12.2018 03:00:00 11,6 10,5 11,6 14 7 41 22 SW 1015,4 - 0,0
07.12.2018 02:00:00 11,6 10,3 11,5 15 8 44 24 SW 1016,2 - 0,0
07.12.2018 01:00:00 11,5 10,1 11,5 17 9 41 22 SW 1016,9 20 0,0
07.12.2018 00:00:00 11,5 9,9 10,7 16 9 43 23 SW 1017,6 - 0,0
06.12.2018 23:00:00 11,3 9,7 10,8 15 8 41 22 SW 1018,5 - 0,0
06.12.2018 22:00:00 11,5 9,4 11,4 14 8 37 20 SW 1019,0 20 0,0
06.12.2018 21:00:00 11,5 9,4 11,0 13 7 38 20 SW 1019,4 - 0,0
06.12.2018 20:00:00 11,5 9,6 11,2 13 7 37 20 SW 1019,7 - 0,0
06.12.2018 19:00:00 11,4 9,5 11,3 13 7 39 21 SW 1019,5 20 0,0

tt = Température de l'air
td = dewpoint
tt 5cm = Température de l'air 5cm
ff = Vitesse du vent
fx = gusts
dd = Direction du vent
ppp = reduced air pressure
vv = visibility
rr = Quantités de précipitations

stations d'obs. à proximité